Tracking 19794 objects as of 22-Jul-2019
HD Live streaming from Space Station
objects crossing your sky now

NOAA 16 DEB

Track NOAA 16 DEB now!
10-day predictions


NORAD ID: 41495
Int'l Code: 2000-055LT
Perigee: 854.5 km
Apogee: 919.5 km
Inclination: 98.8 °
Period: 102.6 minutes
Semi major axis: 7257 km
RCS: Unknown
Launch date: September 21, 2000
Source: United States (US)
Launch site: AIR FORCE WESTERN TEST RANGE (AFWTR)

Note: This is SATELLITE DEBRIS
aabbcc
Your satellite tracking list
Your tracking list is empty




NASA's NSSDC Master Catalog

Two Line Element Set (TLE):
1 41495U 00055LT  19203.08144594  .00000512  00000-0  34776-3 0  9991
2 41495  98.8099 253.9650 0044776 165.6836 194.5611 14.04033864172753
Source of the keplerian elements: AFSPC